Simultaneous Nadir Overpasses (SNOs) Predictions

Prediction of SNOs between NPP and TERRA Satellite Orbit:

Table of predicted SNOs for the next 14.0 days since TLE Epoch: 9/13/2014
Index Date (NPP) Time (NPP) Lat,Lon (NPP) SZA (NPP ) Date (TERRA) Time (TERRA) Lat,Lon (TERRA) SZA (TERRA ) Distance(km) Time Diff (sec)
1 09/15/2014 13:26:39 69.20, -22.08 66.17 09/15/2014 13:27:24 69.19, -22.10 66.15 1.74 45
2 09/15/2014 14:17:20 -69.08, 145.41 113.94 09/15/2014 14:16:54 -69.08, 145.40 113.95 0.46 26
3 09/18/2014 04:53:04 -70.05, -74.86 111.97 09/18/2014 04:54:12 -69.92, -72.87 112.09 77.03 68
4 09/18/2014 05:43:34 69.17, 93.73 67.17 09/18/2014 05:43:51 69.14, 93.73 67.14 3.63 17
5 09/18/2014 06:34:15 -69.05, -98.78 112.94 09/18/2014 06:33:21 -69.04, -98.77 112.95 1.22 54
6 09/20/2014 21:09:45 -69.23, 42.12 111.75 09/20/2014 21:10:51 -69.24, 42.10 111.73 1.93 66
7 09/20/2014 22:00:30 69.15,-150.46 68.19 09/20/2014 22:00:18 69.12,-150.41 68.16 3.33 12
8 09/20/2014 22:51:05 -68.70, 17.47 112.25 09/20/2014 22:49:53 -68.75, 16.75 112.21 29.72 72
9 09/23/2014 13:26:41 -69.20, 157.93 110.73 09/23/2014 13:27:18 -69.20, 157.94 110.73 0.75 37
10 09/23/2014 14:17:25 69.07, -34.58 69.16 09/23/2014 14:16:45 69.08, -34.58 69.16 1.21 40
11 09/26/2014 04:53:00 69.52, 105.92 70.62 09/26/2014 04:54:11 69.45, 106.53 70.56 24.97 71
12 09/26/2014 05:43:36 -69.12, -86.19 109.77 09/26/2014 05:43:45 -69.14, -86.25 109.75 3.19 9
13 09/26/2014 06:34:20 68.99, 81.29
